Weather History for KINJ - November, 2013

Change the Weather History Date:

Thursday, November 14, 2013

  Actual Average (KACT) Record (KACT)
Temperature  
Mean Temperature 46 °F 58 °F  
Max Temperature 59 °F 69 °F 91 °F (1989)
Min Temperature 32 °F 47 °F 21 °F (1940)
Degree Days  
Heating Degree Days 20 8  
Month to date heating degree days 87  
Since 1 July heating degree days 154  
Cooling Degree Days 0 1  
Month to date cooling degree days 26  
Year to date cooling degree days 2782  
Moisture  
Dew Point 33 °F    
Average Humidity 59    
Maximum Humidity 76    
Minimum Humidity 32    
Precipitation  
Precipitation 0.00 in 0.10 in 1.50 in (1954)
Month to date precipitation 1.45  
Year to date precipitation 30.57  
Snow  
Snow 0.00 in 0.00 in T in (1976)
Month to date snowfall 0.0  
Since 1 July snowfall 0.0  
Since 1 September snowfall 0.0  
Snow Depth -    
Sea Level Pressure  
Sea Level Pressure 30.20 in    
Wind  
Wind Speed 7 mph (SSE)    
Max Wind Speed 18 mph    
Max Gust Speed 22 mph    
Visibility 10 miles    
Events      
T = Trace of Precipitation, MM = Missing Value Source: NWS Daily Summary

Daily Weather History Graph

Daily Weather History Graph

Search for Another Location

Airport or City:

Trip Planner

Search our weather history database for the weather conditions in past years. The results will help you decide how hot, cold, wet, or windy it might be!

Date:

Astronomy

Nov. 14, 2013 Rise Set
Actual Time 6:56 AM CST 5:28 PM CST
Civil Twilight 6:30 AM CST 5:54 PM CST
Nautical Twilight 6:01 AM CST 6:24 PM CST
Astronomical Twilight 5:32 AM CST 6:53 PM CST
Moon 3:42 PM CST (11/14) 4:02 AM CST (11/14)
Length of Visible Light 11h 24m
Length of Day
10h 32m
Waxing Gibbous, 92% of the Moon is Illuminated
Nov 14
Waxing Gibbous
Nov 17
Full
Nov 25
Last Quarter
Dec 2
New
Dec 9
First Quarter

Hourly Weather History & Observations

Time (CST) Temp. Windchill Dew Point Humidity Pressure Visibility Wind Dir Wind Speed Gust Speed Precip Events Conditions
12:15 AM 35.2 °F 31.2 °F 25.7 °F 68% 30.38 in 10.0 mi SE 4.6 mph - N/A   Clear
12:35 AM 35.1 °F 31.0 °F 25.5 °F 68% 30.38 in 10.0 mi ESE 4.6 mph - N/A   Clear
12:55 AM 36.9 °F 33.1 °F 25.3 °F 63% 30.37 in 10.0 mi SE 4.6 mph - N/A   Clear
1:15 AM 34.2 °F 31.2 °F 25.2 °F 70% 30.37 in 10.0 mi SSE 3.5 mph - N/A   Clear
1:35 AM 33.8 °F - 25.2 °F 71% 30.37 in 10.0 mi Calm Calm - N/A   Clear
1:55 AM 33.8 °F - 25.3 °F 71% 30.36 in 10.0 mi Calm Calm - N/A   Clear
2:15 AM 32.4 °F - 25.3 °F 75% 30.36 in 10.0 mi Calm Calm - N/A   Clear
2:35 AM 33.3 °F - 25.9 °F 74% 30.36 in 10.0 mi Calm Calm - N/A   Clear
2:55 AM 32.4 °F - 25.3 °F 75% 30.35 in 10.0 mi Calm Calm - N/A   Clear
3:15 AM 32.9 °F 29.8 °F 26.2 °F 76% 30.35 in 10.0 mi SSE 3.5 mph - N/A   Clear
3:35 AM 33.8 °F 29.6 °F 26.2 °F 74% 30.35 in 10.0 mi SSE 4.6 mph - N/A   Clear
3:55 AM 33.6 °F 27.5 °F 26.4 °F 75% 30.34 in 10.0 mi SSE 6.9 mph - N/A   Clear
4:15 AM 34.0 °F 28.0 °F 26.2 °F 73% 30.33 in 10.0 mi SSE 6.9 mph - N/A   Clear
4:35 AM 33.8 °F 27.7 °F 26.2 °F 74% 30.33 in 10.0 mi SSE 6.9 mph - N/A   Clear
4:55 AM 35.2 °F 29.5 °F 27.0 °F 72% 30.32 in 10.0 mi SSE 6.9 mph - N/A   Clear
5:15 AM 35.6 °F 29.9 °F 27.5 °F 72% 30.31 in 10.0 mi SSE 6.9 mph - N/A   Clear
5:35 AM 36.9 °F 31.4 °F 27.5 °F 69% 30.30 in 10.0 mi SE 6.9 mph - N/A   Clear
5:55 AM 36.7 °F 31.2 °F 27.5 °F 69% 30.30 in 10.0 mi SE 6.9 mph - N/A   Clear
6:15 AM 36.7 °F 31.2 °F 27.5 °F 69% 30.30 in 10.0 mi SSE 6.9 mph - N/A   Clear
6:35 AM 36.0 °F 32.1 °F 27.3 °F 71% 30.30 in 10.0 mi SE 4.6 mph - N/A   Clear
6:55 AM 35.1 °F 32.2 °F 27.0 °F 72% 30.30 in 10.0 mi SE 3.5 mph - N/A   Clear
7:15 AM 34.9 °F 30.8 °F 27.3 °F 74% 30.30 in 10.0 mi SE 4.6 mph - N/A   Clear
7:35 AM 37.0 °F 32.4 °F 28.2 °F 70% 30.30 in 10.0 mi SE 5.8 mph - N/A   Clear
7:55 AM 38.3 °F 33.2 °F 28.4 °F 68% 30.29 in 10.0 mi SSE 6.9 mph - N/A   Clear
8:15 AM 39.0 °F 34.0 °F 29.5 °F 69% 30.30 in 10.0 mi SSE 6.9 mph - N/A   Scattered Clouds
8:35 AM 41.5 °F 36.4 °F 30.2 °F 64% 30.29 in 10.0 mi SSE 8.1 mph - N/A   Scattered Clouds
8:55 AM 43.7 °F 39.1 °F 30.4 °F 59% 30.28 in 10.0 mi SSE 8.1 mph - N/A   Clear
9:15 AM 45.0 °F 39.7 °F 30.4 °F 57% 30.28 in 10.0 mi SSE 10.4 mph - N/A   Clear
9:35 AM 45.5 °F 39.6 °F 29.7 °F 54% 30.27 in 10.0 mi SSE 12.7 mph 16.1 mph N/A   Clear
9:55 AM 46.4 °F 40.7 °F 30.4 °F 54% 30.27 in 10.0 mi SSE 12.7 mph - N/A   Scattered Clouds
10:15 AM 46.6 °F - 29.7 °F 52% 30.27 in 10.0 mi South 13.8 mph - N/A   Scattered Clouds
10:35 AM 47.7 °F - 30.9 °F 52% 30.26 in 10.0 mi South 13.8 mph - N/A   Scattered Clouds
10:55 AM 47.8 °F - 30.7 °F 52% 30.25 in 10.0 mi SSE 15.0 mph 18.4 mph N/A   Clear
11:15 AM 51.8 °F - 32.5 °F 48% 30.24 in 10.0 mi SSE 12.7 mph - N/A   Clear
11:35 AM 51.4 °F - 31.8 °F 47% 30.22 in 10.0 mi SSE 11.5 mph - N/A   Clear
11:55 AM 52.7 °F - 31.1 °F 44% 30.20 in 10.0 mi SSE 11.5 mph - N/A   Clear
12:15 PM 53.8 °F - 31.3 °F 42% 30.19 in 10.0 mi SSE 12.7 mph - N/A   Clear
12:35 PM 55.4 °F - 30.9 °F 39% 30.18 in 10.0 mi SSE 12.7 mph 17.3 mph N/A   Clear
12:55 PM 56.3 °F - 29.1 °F 35% 30.16 in 10.0 mi SSE 13.8 mph - N/A   Clear
1:15 PM 57.6 °F - 29.5 °F 34% 30.15 in 10.0 mi SSE 11.5 mph 18.4 mph N/A   Clear
1:35 PM 57.9 °F - 29.3 °F 34% 30.14 in 10.0 mi SSE 13.8 mph - N/A   Clear
1:55 PM 58.1 °F - 29.3 °F 33% 30.13 in 10.0 mi SSE 12.7 mph 21.9 mph N/A   Clear
2:15 PM 57.4 °F - 29.5 °F 35% 30.12 in 10.0 mi South 10.4 mph - N/A   Clear
2:35 PM 59.0 °F - 29.5 °F 33% 30.11 in 10.0 mi SSE 16.1 mph 20.7 mph N/A   Clear
2:55 PM 58.1 °F - 28.9 °F 33% 30.10 in 10.0 mi SSE 12.7 mph - N/A   Scattered Clouds
3:15 PM 57.7 °F - 28.2 °F 32% 30.10 in 10.0 mi SSE 18.4 mph 21.9 mph N/A   Mostly Cloudy
3:35 PM 57.9 °F - 30.2 °F 35% 30.09 in 10.0 mi SSE 13.8 mph - N/A   Mostly Cloudy
3:55 PM 57.9 °F - 31.1 °F 36% 30.08 in 10.0 mi SSE 11.5 mph - N/A   Scattered Clouds
4:15 PM 57.7 °F - 32.5 °F 39% 30.07 in 10.0 mi SSE 11.5 mph - N/A   Clear
4:35 PM 58.6 °F - 35.6 °F 42% 30.07 in 10.0 mi SSE 15.0 mph 18.4 mph N/A   Clear
4:55 PM 57.7 °F - 36.0 °F 44% 30.06 in 10.0 mi SSE 15.0 mph - N/A   Clear
5:15 PM 56.7 °F - 37.2 °F 48% 30.05 in 10.0 mi SSE 12.7 mph - N/A   Scattered Clouds
5:35 PM 56.3 °F - 38.3 °F 51% 30.05 in 10.0 mi SE 9.2 mph - N/A   Mostly Cloudy
5:55 PM 56.3 °F - 39.2 °F 53% 30.05 in 10.0 mi SE 11.5 mph - N/A   Overcast
6:15 PM 56.3 °F - 39.4 °F 53% 30.05 in 10.0 mi SSE 11.5 mph - N/A   Overcast
6:35 PM 56.5 °F - 39.7 °F 54% 30.06 in 10.0 mi SSE 13.8 mph - N/A   Overcast
6:55 PM 56.5 °F - 40.5 °F 55% 30.07 in 10.0 mi SE 12.7 mph - N/A   Overcast
7:15 PM 55.8 °F - 41.0 °F 58% 30.05 in 10.0 mi SE 12.7 mph 17.3 mph N/A   Overcast
7:35 PM 55.4 °F - 41.9 °F 60% 30.07 in 10.0 mi SE 12.7 mph 16.1 mph N/A   Overcast
7:55 PM 54.9 °F - 42.8 °F 64% 30.06 in 10.0 mi SE 13.8 mph - N/A   Scattered Clouds
8:15 PM 54.5 °F - 43.7 °F 67% 30.05 in 10.0 mi SE 15.0 mph - N/A   Clear
8:35 PM 54.5 °F - 44.1 °F 68% 30.06 in 10.0 mi SSE 12.7 mph - N/A   Scattered Clouds
8:55 PM 54.5 °F - 44.6 °F 69% 30.07 in 7.0 mi SSE 12.7 mph - N/A   Overcast
9:15 PM 54.5 °F - 44.6 °F 69% 30.07 in 7.0 mi SE 11.5 mph - N/A   Overcast
9:35 PM 54.5 °F - 45.0 °F 70% 30.08 in 7.0 mi SSE 11.5 mph - N/A   Overcast
9:55 PM 54.1 °F - 45.0 °F 71% 30.07 in 7.0 mi SSE 13.8 mph - N/A   Overcast
10:15 PM 54.1 °F - 45.1 °F 72% 30.07 in 7.0 mi SSE 13.8 mph - N/A   Overcast
10:35 PM 54.0 °F - 45.5 °F 73% 30.07 in 7.0 mi SSE 10.4 mph - N/A   Overcast
10:55 PM 54.0 °F - 45.5 °F 73% 30.07 in 7.0 mi SSE 9.2 mph - N/A   Overcast
11:15 PM 53.8 °F - 45.5 °F 74% 30.05 in 7.0 mi Calm Calm - N/A   Overcast
11:35 PM 53.8 °F - 45.5 °F 74% 30.04 in 7.0 mi SE 10.4 mph - N/A   Overcast
11:55 PM 53.6 °F - 45.1 °F 73% 30.04 in 7.0 mi SSE 10.4 mph - N/A   Overcast